Regional Weather Roundup
Issued by NWS

Home | Current Version | Previous Version | Text Only | Print | Product List | Glossary On
Versions: 1 2 3 4 5 6 7 8 9 10 11 12 13 14 15 16 17 18 19 20 21 22 23 24 25 26 27 28 29 30 31 32 33 34 35 36 37 38 39 40 41 42 43 44 45 46 47 48 49 50
000
ASUS43 KBIS 231910
RWRND

NORTH DAKOTA REGIONAL WEATHER ROUNDUP
NATIONAL WEATHER SERVICE BISMARCK ND
200 PM CDT SAT SEP 23 2017

NOTE: "FAIR" INDICATES FEW OR NO CLOUDS BELOW 12,000 FEET WITH NO
SIGNIFICANT WEATHER AND/OR OBSTRUCTIONS TO VISIBILITY.


NDZ001>003-009>011-017-232000-
NORTHWEST NORTH DAKOTA

CITY           SKY/WX    TMP DP  RH WIND       PRES   REMARKS
WILLISTON      CLOUDY    51  38  60 CALM      30.17R
MINOT          CLOUDY    55  43  63 NW9       30.11F
MINOT AFB      CLOUDY    54  41  62 N7        30.10S
$$

NDZ018>021-031>035-040>046-232000-
SOUTHWEST NORTH DAKOTA

CITY           SKY/WX    TMP DP  RH WIND       PRES   REMARKS
BISMARCK       CLOUDY    56  46  69 N10       30.07F
DICKINSON      CLOUDY    48  43  82 N5        30.10F
GARRISON         N/A     51  42  71 N5        30.10F
HETTINGER ARPT CLOUDY    45  42  89 N9        30.09F
$$

NDZ004>008-012>016-024-026-027-054-232000-
NORTHEAST NORTH DAKOTA

CITY           SKY/WX    TMP DP  RH WIND       PRES   REMARKS
GRAND FORKS    PTSUNNY   60  50  69 N12       30.06S
GRND FRKS AFB  CLOUDY    60  48  64 N12       30.06R
DEVILS LAKE    CLOUDY    55  45  68 N10       30.09R
$$

NDZ022-023-025-028>030-036>039-047>053-232000-
SOUTHEAST NORTH DAKOTA

CITY           SKY/WX    TMP DP  RH WIND       PRES   REMARKS
FARGO          CLOUDY    58  50  75 N8        30.04F
JAMESTOWN      CLOUDY    58  47  66 NE12      30.05F
$$





USA.gov is the U.S. government's official web portal to all federal, state and local government web resources and services.